| time (UTC) | temp C | wind direction | speed KPH | gust KPH | rain 1hr cm | rain 24hr cm | rain mn cm | humidity % | barometer mb |
| 20260502210604 | 10 | 261 | 1.6 | 4.8 | 0.00 | 0.69 | 0.69 | 100 | 1010.7 |
| 20260502210105 | 10 | 261 | 1.6 | 4.8 | 0.00 | 0.69 | 0.69 | 100 | 1010.7 |
| 20260502190603 | 10 | 261 | 0.0 | 3.2 | 0.00 | 0.69 | 0.69 | 100 | 1010.9 |
| 20260502190105 | 10 | 261 | 0.0 | 3.2 | 0.00 | 0.69 | 0.69 | 100 | 1010.9 |
| 20260502180604 | 10 | 261 | 0.0 | 0.0 | 0.00 | 0.69 | 0.69 | 100 | 1011.0 |
| 20260502170105 | 10 | 298 | 0.0 | 4.8 | 0.03 | 0.69 | 0.69 | 100 | 1011.4 |
| 20260502150604 | 10 | 140 | 3.2 | 8.0 | 0.36 | 0.43 | 0.43 | 100 | 1012.2 |
| 20260502150105 | 10 | 142 | 3.2 | 8.0 | 0.38 | 0.43 | 0.43 | 100 | 1012.1 |
| 20260502140105 | 10 | 126 | 3.2 | 9.7 | 0.05 | 0.05 | 0.05 | 100 | 1014.0 |
| 20260502130604 | 10 | 52 | 3.2 | 4.8 | 0.00 | 0.00 | 0.00 | 100 | 1014.1 |
| 20260502110605 | 10 | 117 | 4.8 | 11.3 | 0.00 | 0.00 | 0.00 | 100 | 1015.6 |
| 20260502110105 | 10 | 113 | 3.2 | 12.9 | 0.00 | 0.00 | 0.00 | 100 | 1015.7 |
| 20260502100604 | 10 | 87 | 4.8 | 14.5 | 0.00 | 0.00 | 0.00 | 100 | 1016.6 |
| 20260502100105 | 10 | 115 | 3.2 | 11.3 | 0.00 | 0.00 | 0.00 | 100 | 1016.7 |
| 20260502090603 | 10 | 83 | 1.6 | 4.8 | 0.00 | 0.00 | 0.00 | 100 | 1017.0 |
| 20260502070603 | 10 | 266 | 3.2 | 4.8 | 0.00 | 0.00 | 0.00 | 100 | 1017.7 |
| 20260502070104 | 10 | 266 | 1.6 | 4.8 | 0.00 | 0.00 | 0.00 | 100 | 1017.7 |
| 20260502060603 | 10 | 311 | 0.0 | 0.0 | 0.00 | 0.00 | 0.00 | 100 | 1017.7 |
| 20260502060104 | 10 | 311 | 0.0 | 3.2 | 0.00 | 0.00 | 0.00 | 100 | 1017.7 |
| 20260502050603 | 10 | 256 | 0.0 | 0.0 | 0.00 | 0.00 | 0.00 | 100 | 1017.9 |
| 20260502050104 | 10 | 256 | 0.0 | 4.8 | 0.00 | 0.00 | 0.00 | 100 | 1017.9 |
| 20260502040603 | 10 | 256 | 0.0 | 0.0 | 0.00 | 0.00 | 0.00 | 100 | 1018.0 |
| 20260502040104 | 10 | 256 | 0.0 | 0.0 | 0.00 | 0.00 | 0.00 | 100 | 1017.9 |
| 20260502030105 | 10 | 256 | 0.0 | 0.0 | 0.00 | 0.00 | 0.00 | 100 | 1018.5 |
| 20260502020604 | 10 | 256 | 0.0 | 0.0 | 0.00 | 0.00 | 0.00 | 100 | 1019.0 |
| 20260502020108 | 10 | 256 | 0.0 | 3.2 | 0.00 | 0.00 | 0.00 | 100 | 1019.1 |
| 20260502010604 | 10 | 256 | 0.0 | 0.0 | 0.00 | 0.00 | 0.00 | 100 | 1019.2 |
| 20260502010105 | 10 | 256 | 0.0 | 1.6 | 0.00 | 0.00 | 0.00 | 100 | 1019.3 |
| 20260502000604 | 10 | 256 | 0.0 | 3.2 | 0.00 | 0.00 | 0.00 | 100 | 1019.6 |
| 20260502000105 | 10 | 256 | 1.6 | 3.2 | 0.00 | 0.00 | 0.00 | 100 | 1019.6 |
| 20260501230604 | 10 | 256 | 0.0 | 0.0 | 0.00 | 0.00 | 0.00 | 100 | 1019.8 |
| 20260501230105 | 10 | 256 | 0.0 | 0.0 | 0.00 | 0.00 | 0.00 | 100 | 1019.9 |
| 20260501220603 | 10 | 256 | 0.0 | 0.0 | 0.00 | 0.00 | 0.00 | 100 | 1020.1 |